Weather History for Warroad, MN

Change the Weather History Date:

Saturday, March 16, 2013

  Actual Average Record
Temperature  
Mean Temperature 2 °F -  
Max Temperature 10 °F 32 °F 69 °F (2012)
Min Temperature -7 °F 8 °F -14 °F (1965)
Degree Days  
Heating Degree Days 62    
Moisture  
Dew Point -5 °F    
Average Humidity 69    
Maximum Humidity 85    
Minimum Humidity 52    
Precipitation  
Precipitation 0.00 in - - ()
Sea Level Pressure  
Sea Level Pressure 30.16 in    
Wind  
Wind Speed 6 mph (WNW)    
Max Wind Speed 16 mph    
Max Gust Speed 25 mph    
Visibility 8 miles    
Events      
Averages and records for this station are not official NWS values.
T = Trace of Precipitation, MM = Missing Value Source: NWS Daily Summary

Daily Weather History Graph

Daily Weather History Graph

Search for Another Location

Airport:

Trip Planner

Search our weather history database for the weather conditions in past years. The results will help you decide how hot, cold, wet, or windy it might be!

Date:

Astronomy

Mar. 16, 2013 Rise Set
Actual Time 7:32 AM CDT 7:28 PM CDT
Civil Twilight 7:00 AM CDT 8:00 PM CDT
Nautical Twilight 6:23 AM CDT 8:37 PM CDT
Astronomical Twilight 5:45 AM CDT 9:15 PM CDT
Moon 9:36 AM CDT (3/16) 12:07 AM CDT (3/16)
Length of Visible Light 12h 59m
Length of Day
11h 56m
Waxing Crescent, 23% of the Moon is Illuminated
Mar 16
Waxing Crescent
Mar 19
First Quarter
Mar 27
Full
Apr 2
Last Quarter
Apr 10
New

Hourly Weather History & Observations

Time (CDT) Temp. Windchill Dew Point Humidity Pressure Visibility Wind Dir Wind Speed Gust Speed Precip Events Conditions
12:14 AM 5.0 °F - -0.4 °F 78% 30.11 in 10.0 mi Calm Calm - N/A   Clear
12:34 AM 3.2 °F -4.2 °F -0.4 °F 85% 30.11 in 10.0 mi NNW 3.5 mph - N/A   Clear
12:54 AM 3.2 °F -6.2 °F -0.4 °F 85% 30.11 in 10.0 mi North 4.6 mph - N/A   Clear
1:13 AM 3.2 °F -6.2 °F -0.4 °F 85% 30.12 in 10.0 mi NNW 4.6 mph - N/A   Clear
1:34 AM 3.2 °F -4.2 °F -0.4 °F 85% 30.12 in 10.0 mi NNW 3.5 mph - N/A   Clear
1:54 AM 1.4 °F -6.2 °F -2.2 °F 85% 30.11 in 10.0 mi NW 3.5 mph - N/A   Clear
2:14 AM 1.4 °F -8.3 °F -2.2 °F 85% 30.12 in 10.0 mi NW 4.6 mph - N/A   Scattered Clouds
2:34 AM 1.4 °F -6.2 °F -4.0 °F 78% 30.11 in 4.0 mi WNW 3.5 mph - N/A   Mostly Cloudy
2:54 AM 1.4 °F -12.5 °F -2.2 °F 85% 30.12 in 10.0 mi WNW 8.1 mph - N/A   Scattered Clouds
3:14 AM 1.4 °F -12.5 °F -4.0 °F 78% 30.12 in 10.0 mi NW 8.1 mph - N/A   Mostly Cloudy
3:34 AM 1.4 °F -8.3 °F -4.0 °F 78% 30.12 in 10.0 mi NW 4.6 mph - N/A   Overcast
3:54 AM 1.4 °F -9.9 °F -2.2 °F 85% 30.12 in 10.0 mi WNW 5.8 mph - N/A   Overcast
4:13 AM 1.4 °F -9.9 °F -2.2 °F 85% 30.12 in 7.0 mi WNW 5.8 mph - N/A   Overcast
4:34 AM 1.4 °F -9.9 °F -2.2 °F 85% 30.12 in 7.0 mi WNW 5.8 mph - N/A   Overcast
4:54 AM 1.4 °F -11.3 °F -2.2 °F 85% 30.13 in 7.0 mi WNW 6.9 mph - N/A   Overcast
5:13 AM 1.4 °F -9.9 °F -4.0 °F 78% 30.14 in 7.0 mi WNW 5.8 mph - N/A   Overcast
5:34 AM 1.4 °F -9.9 °F -4.0 °F 78% 30.13 in 7.0 mi WNW 5.8 mph - N/A   Overcast
5:54 AM 1.4 °F -9.9 °F -4.0 °F 78% 30.13 in 7.0 mi WNW 5.8 mph - N/A   Overcast
6:13 AM 1.4 °F -9.9 °F -4.0 °F 78% 30.13 in 7.0 mi West 5.8 mph - N/A   Overcast
6:34 AM 1.4 °F -9.9 °F -4.0 °F 78% 30.13 in 7.0 mi West 5.8 mph - N/A   Overcast
6:54 AM 1.4 °F -9.9 °F -4.0 °F 78% 30.13 in 7.0 mi West 5.8 mph - N/A   Overcast
7:13 AM -0.4 °F -13.4 °F -5.8 °F 78% 30.14 in 7.0 mi WNW 6.9 mph - N/A   Overcast
7:34 AM -0.4 °F -10.4 °F -5.8 °F 78% 30.14 in 7.0 mi West 4.6 mph - N/A   Scattered Clouds
7:54 AM -0.4 °F -8.3 °F -5.8 °F 78% 30.13 in 10.0 mi WNW 3.5 mph - N/A   Clear
8:14 AM -0.4 °F -8.3 °F -5.8 °F 78% 30.14 in 10.0 mi West 3.5 mph - N/A   Clear
8:34 AM -0.4 °F -13.4 °F -5.8 °F 78% 30.13 in 10.0 mi West 6.9 mph - N/A   Clear
8:53 AM -0.4 °F -13.4 °F -5.8 °F 78% 30.13 in 10.0 mi West 6.9 mph - N/A   Clear
9:14 AM -0.4 °F -14.7 °F -5.8 °F 78% 30.13 in 10.0 mi West 8.1 mph - N/A   Clear
9:34 AM 1.4 °F -12.5 °F -5.8 °F 72% 30.13 in 10.0 mi NW 8.1 mph - N/A   Clear
9:54 AM 1.4 °F -13.5 °F -5.8 °F 72% 30.14 in 10.0 mi West 9.2 mph - N/A   Clear
10:14 AM 3.2 °F -9.1 °F -5.8 °F 66% 30.13 in 10.0 mi WNW 6.9 mph - N/A   Clear
10:34 AM 3.2 °F -9.1 °F -5.8 °F 66% 30.13 in 10.0 mi West 6.9 mph - N/A   Scattered Clouds
10:54 AM 3.2 °F -7.8 °F -5.8 °F 66% 30.13 in 5.0 mi WSW 5.8 mph - N/A   Scattered Clouds
11:14 AM 3.2 °F -9.1 °F -5.8 °F 66% 30.13 in 7.0 mi SW 6.9 mph - N/A   Scattered Clouds
11:34 AM 5.0 °F -9.1 °F -4.0 °F 66% 30.13 in 7.0 mi WSW 9.2 mph - N/A   Clear
11:54 AM 5.0 °F -8.1 °F -2.2 °F 72% 30.13 in 7.0 mi SW 8.1 mph - N/A   Clear
12:14 PM 5.0 °F -10.0 °F -2.2 °F 72% 30.14 in 7.0 mi SW 10.4 mph - N/A   Scattered Clouds
12:34 PM 6.8 °F -7.8 °F -2.2 °F 67% 30.14 in 5.0 mi WSW 10.4 mph - N/A   Haze
12:54 PM 6.8 °F -7.8 °F -2.2 °F 67% 30.14 in 3.0 mi WSW 10.4 mph 17.3 mph N/A   Haze
1:13 PM 6.8 °F -8.6 °F -0.4 °F 72% 30.14 in 1.8 mi SW 11.5 mph 19.6 mph N/A   Haze
1:54 PM 8.6 °F -8.3 °F -0.4 °F 67% 30.14 in 2.5 mi WSW 15.0 mph - N/A   Haze
2:14 PM 8.6 °F -8.9 °F -0.4 °F 67% 30.14 in 4.0 mi WSW 16.1 mph 19.6 mph N/A   Haze
2:34 PM 8.6 °F -7.0 °F -0.4 °F 67% 30.14 in 2.5 mi WSW 12.7 mph 20.7 mph N/A   Haze
2:54 PM 8.6 °F -7.7 °F 1.4 °F 73% 30.14 in 3.0 mi West 13.8 mph 19.6 mph N/A   Haze
3:14 PM 10.4 °F -3.3 °F 1.4 °F 67% 30.15 in 7.0 mi West 10.4 mph - N/A   Scattered Clouds
3:34 PM 10.4 °F -6.6 °F -2.2 °F 57% 30.15 in 10.0 mi WNW 16.1 mph 21.9 mph N/A   Scattered Clouds
3:54 PM 10.4 °F -4.8 °F -2.2 °F 57% 30.14 in 10.0 mi WNW 12.7 mph 23.0 mph N/A   Scattered Clouds
4:14 PM 10.4 °F -4.8 °F -0.4 °F 62% 30.15 in 10.0 mi NW 12.7 mph 20.7 mph N/A   Scattered Clouds
4:34 PM 8.6 °F -8.3 °F -0.4 °F 67% 30.16 in 10.0 mi NW 15.0 mph - N/A   Scattered Clouds
4:54 PM 8.6 °F -8.9 °F -2.2 °F 62% 30.16 in 10.0 mi NW 16.1 mph 23.0 mph N/A   Mostly Cloudy
5:14 PM 8.6 °F -7.7 °F -2.2 °F 62% 30.17 in 10.0 mi NW 13.8 mph 19.6 mph N/A   Clear
5:34 PM 8.6 °F -7.0 °F -5.8 °F 52% 30.17 in 10.0 mi NW 12.7 mph 21.9 mph N/A   Clear
5:54 PM 8.6 °F -7.0 °F -4.0 °F 57% 30.17 in 10.0 mi NW 12.7 mph 25.3 mph N/A   Clear
6:14 PM 8.6 °F -5.5 °F -2.2 °F 62% 30.17 in 10.0 mi NW 10.4 mph - N/A   Scattered Clouds
6:34 PM 8.6 °F -8.3 °F -4.0 °F 57% 30.17 in 5.0 mi NW 15.0 mph 20.7 mph N/A   Haze
6:54 PM 6.8 °F -9.3 °F -5.8 °F 56% 30.18 in 10.0 mi NW 12.7 mph - N/A   Scattered Clouds
7:14 PM 6.8 °F -7.8 °F -5.8 °F 56% 30.18 in 10.0 mi WNW 10.4 mph - N/A   Clear
7:34 PM 5.0 °F -5.6 °F -7.6 °F 56% 30.19 in 10.0 mi WNW 5.8 mph - N/A   Clear
7:54 PM 3.2 °F -6.2 °F -9.4 °F 56% 30.20 in 10.0 mi NNW 4.6 mph - N/A   Clear
8:14 PM 1.4 °F -9.9 °F -9.4 °F 61% 30.21 in 10.0 mi NNW 5.8 mph - N/A   Clear
8:33 PM 1.4 °F -9.9 °F -11.2 °F 56% 30.21 in 10.0 mi NNW 5.8 mph - N/A   Clear
8:54 PM 1.4 °F -9.9 °F -11.2 °F 56% 30.22 in 10.0 mi NNW 5.8 mph - N/A   Clear
9:14 PM -0.4 °F -12.0 °F -13.0 °F 55% 30.23 in 10.0 mi NNW 5.8 mph - N/A   Clear
9:34 PM -0.4 °F -8.3 °F -13.0 °F 55% 30.24 in 10.0 mi NW 3.5 mph - N/A   Clear
9:53 PM -0.4 °F - -13.0 °F 55% 30.24 in 10.0 mi Calm Calm - N/A   Clear
10:14 PM -0.4 °F -12.0 °F -13.0 °F 55% 30.25 in 10.0 mi WNW 5.8 mph - N/A   Clear
10:34 PM -2.2 °F -14.2 °F -14.8 °F 55% 30.25 in 10.0 mi WNW 5.8 mph - N/A   Clear
10:54 PM -2.2 °F -10.4 °F -14.8 °F 55% 30.25 in 10.0 mi WNW 3.5 mph - N/A   Clear
11:14 PM -4.0 °F -14.6 °F -16.6 °F 55% 30.26 in 10.0 mi West 4.6 mph - N/A   Clear
11:34 PM -5.8 °F - -16.6 °F 60% 30.26 in 10.0 mi Calm Calm - N/A   Clear
11:54 PM -7.6 °F -18.8 °F -16.6 °F 65% 30.26 in 10.0 mi WNW 4.6 mph - N/A   Clear